Weather History for Crockett, TX

Change the Weather History Date:

Saturday, November 17, 2012

  Actual Average (KLFK) Record (KLFK)
Temperature  
Mean Temperature 51 °F 58 °F  
Max Temperature 69 °F 69 °F 87 °F (2013)
Min Temperature 33 °F 47 °F 26 °F (1997)
Degree Days  
Heating Degree Days 14 8  
Month to date heating degree days 106  
Since 1 July heating degree days 172  
Cooling Degree Days 0 1  
Month to date cooling degree days 27  
Year to date cooling degree days 2571  
Growing Degree Days 1 (Base 50)    
Moisture  
Dew Point 35 °F    
Average Humidity 68    
Maximum Humidity 93    
Minimum Humidity 27    
Precipitation  
Precipitation 0.00 in 0.17 in 4.18 in (2004)
Month to date precipitation 2.94  
Year to date precipitation 42.44  
Snow  
Snow 0.00 in - - ()
Month to date snowfall  
Since 1 July snowfall  
Since 1 September snowfall  
Snow Depth -    
Sea Level Pressure  
Sea Level Pressure 30.37 in    
Wind  
Wind Speed 0 mph (NE)    
Max Wind Speed 5 mph    
Max Gust Speed -    
Visibility 9 miles    
Events      
T = Trace of Precipitation, MM = Missing Value Source: NWS Daily Summary

Daily Weather History Graph

Daily Weather History Graph

Search for Another Location

Airport:

Trip Planner

Search our weather history database for the weather conditions in past years. The results will help you decide how hot, cold, wet, or windy it might be!

Date:

Astronomy

Nov. 17, 2012 Rise Set
Actual Time 6:51 AM CST 5:21 PM CST
Civil Twilight 6:25 AM CST 5:47 PM CST
Nautical Twilight 5:55 AM CST 6:17 PM CST
Astronomical Twilight 5:27 AM CST 6:46 PM CST
Moon 10:36 AM CST (11/17) 9:31 PM CST (11/17)
Length of Visible Light 11h 22m
Length of Day
10h 30m
Waxing Crescent, 20% of the Moon is Illuminated
Nov 17
Waxing Crescent
Nov 20
First Quarter
Nov 28
Full
Dec 6
Last Quarter
Dec 13
New

Hourly Weather History & Observations

Time (CST) Temp. Dew Point Humidity Pressure Visibility Wind Dir Wind Speed Gust Speed Precip Events Conditions
12:15 AM 33.8 °F 32.0 °F 93% 30.39 in 8.0 mi Calm Calm - N/A   Clear
12:35 AM 33.8 °F 32.0 °F 93% 30.38 in 7.0 mi Calm Calm - N/A   Clear
12:55 AM 33.8 °F 32.0 °F 93% 30.38 in 8.0 mi Calm Calm - N/A   Clear
1:15 AM 35.6 °F 32.0 °F 87% 30.37 in 9.0 mi Calm Calm - N/A   Clear
1:55 AM 39.2 °F 32.0 °F 75% 30.38 in 7.0 mi Calm Calm - N/A   Clear
2:15 AM 37.4 °F 32.0 °F 81% 30.38 in 7.0 mi Calm Calm - N/A   Clear
2:35 AM 37.4 °F 32.0 °F 81% 30.37 in 6.0 mi Calm Calm - N/A   Haze
2:55 AM 39.2 °F 32.0 °F 75% 30.38 in 7.0 mi Calm Calm - N/A   Clear
3:15 AM 37.4 °F 32.0 °F 81% 30.37 in 10.0 mi Calm Calm - N/A   Clear
3:35 AM 37.4 °F 32.0 °F 81% 30.37 in 10.0 mi Calm Calm - N/A   Clear
3:55 AM 39.2 °F 32.0 °F 75% 30.37 in 7.0 mi Calm Calm - N/A   Clear
4:15 AM 39.2 °F 32.0 °F 75% 30.38 in 8.0 mi Calm Calm - N/A   Clear
4:35 AM 35.6 °F 32.0 °F 87% 30.37 in 8.0 mi Calm Calm - N/A   Clear
4:55 AM 35.6 °F 32.0 °F 87% 30.38 in 6.0 mi Calm Calm - N/A   Clear
5:35 AM 35.6 °F 32.0 °F 87% 30.38 in 10.0 mi Calm Calm - N/A   Clear
5:55 AM 33.8 °F 32.0 °F 93% 30.39 in 9.0 mi Calm Calm - N/A   Clear
6:15 AM 35.6 °F 32.0 °F 87% 30.39 in 5.0 mi Calm Calm - N/A   Clear
6:55 AM 33.8 °F 32.0 °F 93% 30.40 in 9.0 mi Calm Calm - N/A   Clear
7:15 AM 33.8 °F 32.0 °F 93% 30.41 in 5.0 mi Calm Calm - N/A   Clear
7:35 AM 35.6 °F 33.8 °F 93% 30.42 in 6.0 mi Calm Calm - N/A   Clear
7:55 AM 41.0 °F 35.6 °F 81% 30.42 in 8.0 mi Calm Calm - N/A   Clear
8:15 AM 46.4 °F 37.4 °F 71% 30.43 in 9.0 mi Calm Calm - N/A   Clear
8:35 AM 50.0 °F 37.4 °F 62% 30.43 in 10.0 mi Calm Calm - N/A   Clear
8:55 AM 51.8 °F 37.4 °F 58% 30.43 in 10.0 mi Calm Calm - N/A   Clear
9:15 AM 53.6 °F 37.4 °F 54% 30.43 in 10.0 mi Calm Calm - N/A   Clear
9:35 AM 55.4 °F 35.6 °F 47% 30.44 in 10.0 mi Calm Calm - N/A   Clear
9:55 AM 57.2 °F 37.4 °F 48% 30.44 in 10.0 mi Calm Calm - N/A   Clear
10:15 AM 60.8 °F 35.6 °F 39% 30.44 in 10.0 mi East 4.6 mph - N/A   Clear
11:35 AM 62.6 °F 35.6 °F 37% 30.41 in 10.0 mi Calm Calm - N/A   Clear
11:55 AM 66.2 °F 35.6 °F 32% 30.40 in 10.0 mi Calm Calm - N/A   Clear
12:15 PM 64.4 °F 35.6 °F 34% 30.38 in 10.0 mi NNE 3.5 mph - N/A   Clear
12:35 PM 66.2 °F 35.6 °F 32% 30.37 in 10.0 mi Calm Calm - N/A   Clear
12:55 PM 66.2 °F 35.6 °F 32% 30.36 in 8.0 mi Calm Calm - N/A   Clear
1:35 PM 68.0 °F 33.8 °F 28% 30.34 in 10.0 mi Calm Calm - N/A   Clear
1:55 PM 69.8 °F 33.8 °F 27% 30.34 in 10.0 mi Calm Calm - N/A   Clear
2:15 PM 68.0 °F 33.8 °F 28% 30.34 in 10.0 mi Calm Calm - N/A   Clear
2:55 PM 68.0 °F 33.8 °F 28% 30.33 in 10.0 mi Calm Calm - N/A   Clear
3:15 PM 68.0 °F 33.8 °F 28% 30.33 in 10.0 mi Calm Calm - N/A   Clear
3:35 PM 69.8 °F 35.6 °F 28% 30.33 in 10.0 mi Calm Calm - N/A   Clear
3:55 PM 66.2 °F 35.6 °F 32% 30.33 in 10.0 mi Calm Calm - N/A   Clear
4:15 PM 66.2 °F 35.6 °F 32% 30.33 in 10.0 mi Calm Calm - N/A   Clear
4:55 PM 62.6 °F 42.8 °F 48% 30.33 in 10.0 mi Calm Calm - N/A   Clear
5:15 PM 55.4 °F 41.0 °F 58% 30.33 in 10.0 mi Calm Calm - N/A   Clear
5:35 PM 53.6 °F 41.0 °F 62% 30.33 in 10.0 mi Calm Calm - N/A   Clear
5:55 PM 50.0 °F 41.0 °F 71% 30.33 in 10.0 mi Calm Calm - N/A   Clear
6:15 PM 48.2 °F 41.0 °F 76% 30.33 in 10.0 mi Calm Calm - N/A   Clear
6:35 PM 46.4 °F 39.2 °F 76% 30.33 in 10.0 mi Calm Calm - N/A   Clear
6:55 PM 46.4 °F 39.2 °F 76% 30.33 in 10.0 mi Calm Calm - N/A   Clear
7:15 PM 44.6 °F 39.2 °F 81% 30.34 in 10.0 mi Calm Calm - N/A   Clear
7:35 PM 44.6 °F 39.2 °F 81% 30.34 in 10.0 mi Calm Calm - N/A   Clear
7:55 PM 44.6 °F 39.2 °F 81% 30.34 in 10.0 mi Calm Calm - N/A   Clear
8:15 PM 42.8 °F 37.4 °F 81% 30.34 in 10.0 mi Calm Calm - N/A   Clear
8:35 PM 42.8 °F 37.4 °F 81% 30.34 in 10.0 mi Calm Calm - N/A   Clear
8:55 PM 42.8 °F 37.4 °F 81% 30.34 in 10.0 mi Calm Calm - N/A   Clear
9:15 PM 42.8 °F 37.4 °F 81% 30.35 in 10.0 mi Calm Calm - N/A   Clear
9:35 PM 41.0 °F 37.4 °F 87% 30.35 in 10.0 mi Calm Calm - N/A   Clear
9:55 PM 41.0 °F 37.4 °F 87% 30.35 in 10.0 mi Calm Calm - N/A   Clear
10:15 PM 39.2 °F 35.6 °F 87% 30.34 in 10.0 mi Calm Calm - N/A   Clear
10:35 PM 39.2 °F 35.6 °F 87% 30.35 in 10.0 mi Calm Calm - N/A   Clear
10:55 PM 41.0 °F 35.6 °F 81% 30.35 in 10.0 mi Calm Calm - N/A   Clear
11:15 PM 39.2 °F 35.6 °F 87% 30.35 in 10.0 mi Calm Calm - N/A   Clear
11:35 PM 39.2 °F 35.6 °F 87% 30.35 in 10.0 mi Calm Calm - N/A   Clear
11:55 PM 37.4 °F 35.6 °F 93% 30.35 in 10.0 mi Calm Calm - N/A   Clear